TimeMST,TemperatureF,Dew PointF,Humidity,Sea Level PressureIn,VisibilityMPH,Wind Direction,Wind SpeedMPH,Gust SpeedMPH,PrecipitationIn,Events,Conditions,WindDirDegrees,DateUTC
12:53 AM,28.9,23.0,78,30.43,10.0,ENE,4.6,-,N/A,,Clear,60,2013-03-02 07:53:00
2:53 AM,27.0,21.9,81,30.42,10.0,ENE,3.5,-,N/A,,Clear,70,2013-03-02 09:53:00
3:53 AM,25.0,19.0,78,30.43,10.0,NE,3.5,-,N/A,,Clear,50,2013-03-02 10:53:00
5:53 AM,24.1,19.0,81,30.47,10.0,North,4.6,-,N/A,,Clear,10,2013-03-02 12:53:00
6:53 AM,23.0,19.0,85,30.50,10.0,North,5.8,-,N/A,,Clear,10,2013-03-02 13:53:00
7:53 AM,27.0,21.9,81,30.51,10.0,Calm,Calm,-,N/A,,Clear,0,2013-03-02 14:53:00
8:53 AM,32.0,21.9,66,30.51,10.0,East,4.6,-,N/A,,Clear,90,2013-03-02 15:53:00
9:53 AM,37.0,23.0,57,30.48,10.0,Calm,Calm,-,N/A,,Clear,0,2013-03-02 16:53:00
10:53 AM,42.1,24.1,49,30.45,10.0,Calm,Calm,-,N/A,,Clear,0,2013-03-02 17:53:00
11:53 AM,46.9,25.0,42,30.41,10.0,SW,3.5,-,N/A,,Clear,230,2013-03-02 18:53:00
12:53 PM,50.0,24.1,36,30.35,10.0,SSW,5.8,-,N/A,,Clear,210,2013-03-02 19:53:00
1:53 PM,53.1,27.0,37,30.32,10.0,WSW,8.1,-,N/A,,Clear,240,2013-03-02 20:53:00
2:53 PM,54.0,28.0,37,30.29,10.0,WSW,6.9,-,N/A,,Clear,240,2013-03-02 21:53:00
3:53 PM,55.0,26.1,33,30.27,10.0,SW,3.5,-,N/A,,Clear,230,2013-03-02 22:53:00
4:53 PM,54.0,27.0,35,30.26,10.0,WSW,5.8,-,N/A,,Clear,240,2013-03-02 23:53:00
6:53 PM,39.9,30.0,68,30.34,10.0,NE,4.6,-,N/A,,Clear,50,2013-03-03 01:53:00
7:53 PM,37.0,28.9,73,30.34,10.0,NE,3.5,-,N/A,,Clear,50,2013-03-03 02:53:00
8:53 PM,36.0,28.0,73,30.33,10.0,Calm,Calm,-,N/A,,Clear,0,2013-03-03 03:53:00
9:53 PM,35.1,27.0,72,30.31,10.0,NNE,8.1,-,N/A,,Clear,20,2013-03-03 04:53:00
10:53 PM,33.1,26.1,75,30.27,10.0,Calm,Calm,-,N/A,,Clear,0,2013-03-03 05:53:00
11:53 PM,32.0,26.1,79,30.24,10.0,Calm,Calm,-,N/A,,Clear,0,2013-03-03 06:53:00